Weather History for KBOK - January, 2014

Change the Weather History Date:

Friday, January 24, 2014

  Actual Average Record
Temperature  
Mean Temperature 61 °F -  
Max Temperature 72 °F 55 °F 72 °F (2014)
Min Temperature 47 °F 41 °F 26 °F (1949)
Degree Days  
Heating Degree Days 4    
Growing Degree Days 11 (Base 50)    
Moisture  
Dew Point 35 °F    
Average Humidity 48    
Maximum Humidity 90    
Minimum Humidity 19    
Precipitation  
Precipitation 0.00 in - - ()
Sea Level Pressure  
Sea Level Pressure 30.17 in    
Wind  
Wind Speed 7 mph (ENE)    
Max Wind Speed 10 mph    
Max Gust Speed 17 mph    
Visibility 8 miles    
Events      
Averages and records for this station are not official NWS values.
T = Trace of Precipitation, MM = Missing Value Source: NWS Daily Summary

Daily Weather History Graph

Daily Weather History Graph

Search for Another Location

Airport or City:

Trip Planner

Search our weather history database for the weather conditions in past years. The results will help you decide how hot, cold, wet, or windy it might be!

Date:

Astronomy

Jan. 24, 2014 Rise Set
Actual Time 7:37 AM PST 5:21 PM PST
Civil Twilight 7:07 AM PST 5:52 PM PST
Nautical Twilight 6:33 AM PST 6:26 PM PST
Astronomical Twilight 5:59 AM PST 6:59 PM PST
Moon 1:09 AM PST (1/24) 11:45 AM PST (1/24)
Length of Visible Light 10h 45m
Length of Day
9h 44m
Last Quarter, 43% of the Moon is Illuminated
Jan 24
Last Quarter
Jan 30
New
Feb 6
First Quarter
Feb 14
Full
Feb 22
Last Quarter

Hourly Weather History & Observations

Time (PST) Temp. Dew Point Humidity Pressure Visibility Wind Dir Wind Speed Gust Speed Precip Events Conditions
12:56 AM 65.8 °F 22.1 °F 19% 30.05 in 10.0 mi NE 8.1 mph - N/A   Clear
1:56 AM 64.9 °F 22.1 °F 20% 30.08 in 10.0 mi East 8.1 mph - N/A   Clear
2:56 AM 63.9 °F 23.0 °F 21% 30.10 in 10.0 mi ENE 8.1 mph - N/A   Clear
3:56 AM 63.9 °F 23.0 °F 21% 30.09 in 10.0 mi ENE 8.1 mph - N/A   Clear
4:56 AM 63.0 °F 24.1 °F 23% 30.10 in 10.0 mi ENE 6.9 mph - N/A   Clear
5:56 AM 63.0 °F 24.1 °F 23% 30.09 in 10.0 mi ENE 10.4 mph - N/A   Clear
6:56 AM 63.9 °F 23.0 °F 21% 30.10 in 10.0 mi ENE 10.4 mph - N/A   Clear
7:56 AM 63.9 °F 23.0 °F 21% 30.11 in 10.0 mi East 9.2 mph - N/A   Clear
8:56 AM 63.9 °F 25.2 °F 23% 30.12 in 9.0 mi East 8.1 mph 17.3 mph N/A   Clear
9:56 AM 66.9 °F 26.1 °F 21% 30.13 in 10.0 mi ENE 9.2 mph - N/A   Clear
10:56 AM 70.0 °F 26.1 °F 19% 30.15 in 9.0 mi ENE 9.2 mph - N/A   Clear
11:56 AM 72.0 °F 27.1 °F 19% 30.14 in 9.0 mi ENE 10.4 mph - N/A   Clear
12:56 PM 68.9 °F 28.0 °F 22% 30.13 in 8.0 mi SSE 8.1 mph - N/A   Clear
1:56 PM 63.9 °F 32.9 °F 31% 30.14 in 8.0 mi Variable 4.6 mph - N/A   Clear
2:56 PM 59.0 °F 45.9 °F 62% 30.15 in 6.0 mi SW 4.6 mph - N/A   Haze
3:56 PM 57.9 °F 46.9 °F 67% 30.17 in 6.0 mi WSW 4.6 mph - N/A   Haze
4:56 PM 54.9 °F 47.8 °F 77% 30.20 in 6.0 mi Variable 3.5 mph - N/A   Haze
5:56 PM 52.0 °F 47.8 °F 86% 30.23 in 7.0 mi East 3.5 mph - N/A   Clear
6:56 PM 52.0 °F 47.8 °F 86% 30.25 in 7.0 mi Calm Calm - N/A   Mostly Cloudy
7:56 PM 54.0 °F 48.9 °F 83% 30.27 in 7.0 mi Calm Calm - N/A   Overcast
8:56 PM 52.9 °F 47.8 °F 83% 30.27 in 7.0 mi Variable 3.5 mph - N/A   Mostly Cloudy
9:44 PM 51.8 °F 48.2 °F 88% 30.27 in 7.0 mi Variable 3.5 mph - N/A   Scattered Clouds
9:56 PM 52.0 °F 46.9 °F 83% 30.27 in 7.0 mi Variable 3.5 mph - N/A   Clear
10:56 PM 50.9 °F 46.9 °F 86% 30.27 in 7.0 mi Calm Calm - N/A   Clear
11:56 PM 47.8 °F 45.0 °F 90% 30.27 in 7.0 mi Calm Calm - N/A   Clear